Location: La Oliva
(42.2466°N, 2.9955°E)
Time: 07:23:34
(UTC+00:00)

USA 281 - Pass Details

Date: 22 April 2021
Orbit: 1078 x 1081 km, 106.0° (Epoch: 06 May)

Event Time Altitude Azimuth Distance (km) Brightness Sun altitude
Exits shadow 23:43:10 46° 57° (ENE) 1,416 3.9 -35.2°
Drops below altitude 10° 23:49:21 10° 347° (NNW) 2,927 6.2 -35.2°
Sets 23:51:58 0° 342° (NNW) 3,887 7.0 -35.2°
